Regional Weather Roundup
Issued by NWS Albany, NY

Home | Current Version | Previous Version | Text Only | Print | Product List | Glossary Off
Versions: 1 2 3 4 5 6 7 8 9 10 11 12 13 14 15 16 17 18 19 20 21 22 23 24 25 26 27 28 29 30 31 32 33 34 35 36 37 38 39 40 41 42 43 44 45 46 47 48 49 50

346
ASUS41 KALY 230510
RWRALY

NEW YORK STATE HOURLY WEATHER ROUNDUP
NATIONAL WEATHER SERVICE ALBANY NY
1200 AM EST THU FEB 23 2017

NOTE: "FAIR" INDICATES FEW OR NO CLOUDS BELOW 12,000 FEET WITH NO
SIGNIFICANT WEATHER AND/OR NO OBSTRUCTIONS TO VISIBILITY.

NYZ032-033-038>043-046>054-057>066-NYZ062>081-082-084-230600-
EAST


CITY           SKY/WX    TMP DP  RH WIND       PRES   REMARKS
ALBANY         PTCLDY    46  35  65 S5        29.85F
GLENS FALLS    PTCLDY    36  30  79 CALM      29.84F
POUGHKEEPSIE   MOCLDY    36  34  92 NW3       29.87F
NEWBURGH       PTCLDY    41  37  87 CALM      29.88S
MONTGOMERY     MOCLDY    35  33  92 CALM      29.86F
WHITE PLAINS   CLEAR     39  35  86 CALM      29.87F
ISLIP          FOG       41  41 100 CALM      29.89S VSB 1/4
NEW YORK CITY  PTCLDY    49  43  80 CALM      29.88S
CENTRAL PARK   CLEAR     52  42  69 CALM      29.90F
$$

NYZ005>009-017-018-044>046-055-056-230600-
CENTRAL


CITY           SKY/WX    TMP DP  RH WIND       PRES   REMARKS
FULTON         MOCLDY    43  36  76 CALM      29.79F
SYRACUSE       CLOUDY    48  42  80 CALM      29.80S
ROME           CLOUDY    44  36  73 SE6       29.83F
ELMIRA         FOG       38  36  92 CALM      29.83F VSB 1/4
BINGHAMTON     CLOUDY    48  39  71 S5        29.84F
MONTICELLO     CLEAR     39  37  93 N5        29.88F
$$

NYZ026>034-041>043-087-230600-
NORTH


CITY           SKY/WX    TMP DP  RH WIND       PRES   REMARKS
WATERTOWN      CLOUDY    53  42  66 VRB7      29.76F
FORT DRUM      NOT AVBL
OGDENSBURG     CLOUDY    41  36  83 CALM      29.76S
MASSENA        CLOUDY    38  34  85 CALM      29.78F
SARANAC LAKE   CLOUDY    39  35  86 SW7       29.78F WCI  34
PLATTSBURGH    CLOUDY    37  31  78 CALM      29.80S
$$

NYZ001>004-010>016-019>021-085-230600-
WEST


CITY           SKY/WX    TMP DP  RH WIND       PRES   REMARKS
NIAGARA FALLS  PTCLDY    56  50  80 S13       29.72F
BUFFALO        CLOUDY    56  50  80 S12       29.75F
DUNKIRK        CLOUDY    55  51  86 S9        29.77F
JAMESTOWN        N/A     50  46  87 S6        29.79F VSB 1/2
WELLSVILLE     CLEAR     50  47  89 S7        29.82F
ROCHESTER      CLOUDY    56  50  80 SW5       29.76F
PENN YAN       MOCLDY    52  46  80 SW7       29.80F
$$

             KEY
       WCI = WIND CHILL INDEX
       VSB = VISIBILITY
       HX  = HEAT INDEX
$$




USA.gov is the U.S. government's official web portal to all federal, state and local government web resources and services.